�������l�o���
Date,Time,MP-1(��Sv/h),MP-2(��Sv/h),MP-3(��Sv/h),MP-4(��Sv/h),MP-5(��Sv/h),MP-6(��Sv/h),MP-7(��Sv/h),MP-8(��Sv/h),����,����(m/s),���J
2017/11/24,00:00,0.891,1.431,0.919,1.714,1.168,0.491,0.886,0.841,���k��,3.7,��
2017/11/24,00:10,0.889,1.430,0.919,1.712,1.166,0.492,0.885,0.841,���k��,4.8,��
2017/11/24,00:20,0.888,1.432,0.917,1.712,1.169,0.491,0.883,0.842,���k��,5.9,��
2017/11/24,00:30,0.888,1.430,0.917,1.715,1.166,0.491,0.885,0.841,���k��,6.5,��
2017/11/24,00:40,0.889,1.431,0.917,1.714,1.167,0.493,0.884,0.840,���k��,5.0,��
2017/11/24,00:50,0.888,1.433,0.915,1.715,1.166,0.491,0.883,0.839,���k��,4.3,��
2017/11/24,01:00,0.890,1.432,0.916,1.713,1.168,0.491,0.886,0.839,���k��,3.7,��
2017/11/24,01:10,0.888,1.430,0.916,1.714,1.165,0.494,0.884,0.841,���k��,3.1,��
2017/11/24,01:20,0.887,1.428,0.914,1.713,1.169,0.491,0.884,0.842,��,2.8,��
2017/11/24,01:30,0.889,1.430,0.917,1.713,1.167,0.490,0.883,0.840,��,1.7,��
2017/11/24,01:40,0.889,1.430,0.915,1.714,1.168,0.490,0.883,0.841,���쐼,1.5,��
2017/11/24,01:50,0.889,1.430,0.915,1.714,1.167,0.492,0.884,0.841,��,1.2,��
2017/11/24,02:00,0.888,1.433,0.915,1.712,1.166,0.492,0.883,0.840,��쐼,1.1,��
2017/11/24,02:10,0.890,1.430,0.917,1.712,1.170,0.491,0.885,0.840,��,2.2,��
2017/11/24,02:20,0.886,1.431,0.915,1.714,1.164,0.490,0.884,0.840,��쐼,1.2,��
2017/11/24,02:30,0.887,1.431,0.915,1.712,1.167,0.491,0.882,0.840,��쐼,1.1,��
2017/11/24,02:40,0.889,1.430,0.916,1.716,1.166,0.491,0.882,0.840,��쐼,2.2,��
2017/11/24,02:50,0.887,1.433,0.915,1.712,1.168,0.491,0.883,0.840,���쐼,1.2,��
2017/11/24,03:00,0.888,1.429,0.914,1.712,1.167,0.492,0.883,0.839,-,CALM,��
2017/11/24,03:10,0.889,1.432,0.915,1.713,1.168,0.492,0.884,0.839,��,3.0,��
2017/11/24,03:20,0.887,1.431,0.916,1.711,1.166,0.491,0.882,0.840,���쐼,2.9,��
2017/11/24,03:30,0.887,1.428,0.917,1.710,1.165,0.492,0.884,0.839,���k��,2.3,��
2017/11/24,03:40,0.888,1.432,0.915,1.713,1.166,0.490,0.885,0.840,�k��,4.7,��
2017/11/24,03:50,0.887,1.429,0.915,1.712,1.167,0.490,0.885,0.839,�k��,6.6,��
2017/11/24,04:00,0.888,1.431,0.915,1.713,1.164,0.491,0.883,0.841,���k��,7.5,��
2017/11/24,04:10,0.886,1.430,0.916,1.712,1.165,0.490,0.886,0.841,���k��,9.5,��
2017/11/24,04:20,0.888,1.430,0.915,1.714,1.168,0.489,0.884,0.840,���k��,9.8,��
2017/11/24,04:30,0.889,1.431,0.916,1.714,1.166,0.491,0.884,0.841,���k��,10.9,��
2017/11/24,04:40,0.888,1.431,0.918,1.715,1.165,0.490,0.885,0.841,���k��,8.5,��
2017/11/24,04:50,0.886,1.432,0.915,1.713,1.166,0.490,0.884,0.840,�k��,6.0,��
2017/11/24,05:00,0.888,1.432,0.914,1.717,1.167,0.493,0.885,0.840,�k��,5.5,��
2017/11/24,05:10,0.888,1.434,0.918,1.712,1.165,0.493,0.887,0.840,���k��,6.2,��
2017/11/24,05:20,0.888,1.432,0.916,1.712,1.170,0.491,0.884,0.841,��,7.1,��
2017/11/24,05:30,0.888,1.430,0.915,1.713,1.167,0.491,0.888,0.841,��,6.0,��
2017/11/24,05:40,0.887,1.433,0.915,1.715,1.169,0.492,0.886,0.841,��쐼,4.4,��
2017/11/24,05:50,0.890,1.431,0.918,1.714,1.168,0.492,0.884,0.841,��,4.3,��
2017/11/24,06:00,0.886,1.432,0.915,1.714,1.166,0.492,0.885,0.840,��쐼,3.2,��
2017/11/24,06:10,0.889,1.431,0.916,1.713,1.163,0.493,0.887,0.842,��,4.1,��
2017/11/24,06:20,0.887,1.432,0.919,1.716,1.167,0.491,0.885,0.841,��,7.6,��
2017/11/24,06:30,0.888,1.432,0.919,1.713,1.170,0.493,0.885,0.841,��,8.0,��
2017/11/24,06:40,0.889,1.433,0.919,1.718,1.169,0.490,0.887,0.840,��,8.3,��
2017/11/24,06:50,0.888,1.432,0.918,1.715,1.169,0.491,0.886,0.840,���쐼,3.8,��
2017/11/24,07:00,0.889,1.432,0.918,1.715,1.168,0.492,0.884,0.840,��,3.1,��
2017/11/24,07:10,0.889,1.431,0.916,1.713,1.168,0.490,0.882,0.840,��쐼,2.0,��
2017/11/24,07:20,0.887,1.432,0.916,1.714,1.169,0.492,0.886,0.839,�쐼,2.3,��
2017/11/24,07:30,0.887,1.431,0.917,1.715,1.167,0.492,0.886,0.841,�쐼,2.5,��
2017/11/24,07:40,0.888,1.434,0.916,1.715,1.168,0.491,0.885,0.841,�쐼,2.5,��
2017/11/24,07:50,0.890,1.431,0.915,1.715,1.169,0.492,0.886,0.841,�쐼,2.6,��
2017/11/24,08:00,0.890,1.434,0.917,1.715,1.166,0.492,0.886,0.842,��,3.2,��
2017/11/24,08:10,0.890,1.434,0.913,1.715,1.168,0.491,0.885,0.842,���쐼,3.0,��
2017/11/24,08:20,0.892,1.436,0.917,1.716,1.171,0.493,0.884,0.843,��,2.3,��
2017/11/24,08:30,0.889,1.436,0.918,1.718,1.165,0.492,0.883,0.842,���쐼,0.9,��
2017/11/24,08:40,0.892,1.434,0.917,1.715,1.170,0.491,0.885,0.842,�쓌,1.1,��
2017/11/24,08:50,0.892,1.434,0.918,1.718,1.171,0.490,0.885,0.842,�k�k��,0.9,��
2017/11/24,09:00,0.891,1.436,0.918,1.717,1.170,0.491,0.884,0.842,�k�k��,4.0,��
2017/11/24,09:10,0.892,1.433,0.919,1.719,1.172,0.491,0.884,0.842,���쐼,2.8,��
2017/11/24,09:20,0.894,1.433,0.919,1.718,1.170,0.490,0.883,0.843,��,6.9,��
2017/11/24,09:30,0.893,1.432,0.919,1.720,1.170,0.494,0.883,0.842,��,8.0,��
2017/11/24,09:40,0.892,1.433,0.918,1.722,1.170,0.491,0.885,0.841,��,7.5,��
2017/11/24,09:50,0.893,1.433,0.921,1.719,1.171,0.493,0.885,0.843,��,9.0,��
2017/11/24,10:00,0.893,1.436,0.920,1.720,1.173,0.493,0.883,0.842,��,9.7,��
2017/11/24,10:10,0.892,1.434,0.920,1.721,1.174,0.493,0.885,0.842,��,7.4,��
2017/11/24,10:20,0.896,1.434,0.924,1.722,1.174,0.493,0.884,0.843,��,8.4,��
2017/11/24,10:30,0.894,1.435,0.924,1.724,1.174,0.494,0.882,0.842,��,11.6,��
2017/11/24,10:40,0.894,1.437,0.921,1.722,1.176,0.491,0.882,0.845,��,9.5,��
2017/11/24,10:50,0.894,1.435,0.923,1.725,1.177,0.494,0.883,0.844,��,10.5,��
2017/11/24,11:00,0.895,1.434,0.921,1.724,1.177,0.493,0.883,0.843,��,9.0,��
2017/11/24,11:10,0.894,1.438,0.923,1.724,1.176,0.492,0.884,0.841,��,11.3,��
2017/11/24,11:20,0.894,1.436,0.924,1.726,1.177,0.493,0.883,0.845,��,10.8,��
2017/11/24,11:30,0.894,1.439,0.922,1.727,1.179,0.494,0.882,0.844,��,10.2,��
2017/11/24,11:40,0.894,1.440,0.924,1.725,1.177,0.492,0.884,0.844,��,8.6,��
2017/11/24,11:50,0.895,1.436,0.921,1.729,1.175,0.494,0.883,0.845,��,9.7,��
2017/11/24,12:00,0.898,1.443,0.923,1.726,1.178,0.493,0.881,0.844,��,10.2,��
2017/11/24,12:10,0.896,1.441,0.924,1.730,1.176,0.496,0.884,0.844,��,11.6,��
2017/11/24,12:20,0.896,1.441,0.923,1.729,1.177,0.495,0.885,0.845,��,10.4,��
2017/11/24,12:30,0.897,1.442,0.924,1.728,1.178,0.495,0.882,0.844,��,10.0,��
2017/11/24,12:40,0.897,1.444,0.923,1.728,1.178,0.494,0.883,0.845,��,12.7,��
2017/11/24,12:50,0.897,1.439,0.925,1.729,1.175,0.494,0.882,0.844,���k��,10.2,��
2017/11/24,13:00,0.898,1.443,0.926,1.727,1.178,0.496,0.885,0.843,��,9.5,��
2017/11/24,13:10,0.897,1.441,0.925,1.729,1.178,0.495,0.885,0.842,��,10.2,��
2017/11/24,13:20,0.897,1.439,0.927,1.730,1.180,0.495,0.886,0.843,���k��,13.8,��
2017/11/24,13:30,0.897,1.425,0.925,1.732,1.177,0.496,0.886,0.841,��,8.7,��
2017/11/24,13:40,0.900,-,0.926,1.734,1.183,0.495,0.887,0.842,���k��,10.2,��
2017/11/24,13:50,0.897,-,0.927,1.729,1.185,0.496,0.887,0.841,���k��,8.6,��
2017/11/24,14:00,0.897,-,0.926,1.733,1.184,0.495,0.888,0.842,���k��,6.9,��
2017/11/24,14:10,0.899,-,0.924,1.731,1.184,0.495,0.887,0.844,���k��,4.3,��
2017/11/24,14:20,0.899,-,0.924,1.733,1.185,0.495,0.887,0.843,�k��,5.7,��
2017/11/24,14:30,0.899,-,0.926,1.735,1.183,0.496,0.890,0.845,�k��,5.1,��
2017/11/24,14:40,0.898,-,0.925,1.733,1.182,0.496,0.890,0.845,�k��,4.4,��
2017/11/24,14:50,0.900,-,0.925,1.732,1.185,0.495,0.888,0.843,�k�k��,4.7,��
2017/11/24,15:00,0.900,-,0.925,1.732,1.185,0.493,0.889,0.846,�k��,2.9,��
2017/11/24,15:10,0.898,1.439,0.925,1.734,1.183,0.492,0.888,0.844,���k��,6.2,��
2017/11/24,15:20,0.900,1.446,0.925,1.732,1.182,0.492,0.888,0.845,���k��,5.4,��
2017/11/24,15:30,0.898,1.451,0.927,1.734,1.183,0.491,0.888,0.843,��,4.0,��
2017/11/24,15:40,0.897,1.449,0.926,1.731,1.182,0.492,0.888,0.844,���k��,5.8,��
2017/11/24,15:50,0.899,1.447,0.928,1.732,1.180,0.491,0.889,-,���k��,7.3,��
2017/11/24,16:00,0.898,1.447,0.925,1.731,1.182,0.493,0.886,-,���k��,5.1,��
2017/11/24,16:10,0.897,1.450,0.925,1.733,1.180,0.492,0.887,0.841,���k��,4.7,��
2017/11/24,16:20,0.899,1.449,0.925,1.730,1.180,0.491,0.888,0.843,���k��,3.6,��
2017/11/24,16:30,0.896,1.447,0.924,1.731,1.182,0.491,0.888,0.842,��,6.9,��
2017/11/24,16:40,0.896,1.450,0.924,1.730,1.184,0.492,0.888,0.844,��,8.9,��
2017/11/24,16:50,0.898,1.450,0.926,1.732,1.183,0.492,0.888,0.845,��,8.1,��
2017/11/24,17:00,0.895,1.448,0.923,1.733,1.181,0.493,0.886,0.845,��,6.5,��
2017/11/24,17:10,0.898,1.453,0.924,1.732,1.184,0.494,0.887,-,���k��,7.2,��
2017/11/24,17:20,0.897,1.449,0.925,1.732,1.184,0.493,0.886,0.842,���k��,6.7,��
2017/11/24,17:30,0.896,1.449,0.925,1.731,1.181,0.494,0.887,0.843,��,7.3,��
2017/11/24,17:40,0.897,1.447,0.925,1.732,1.184,0.494,0.886,0.844,��,8.3,��
2017/11/24,17:50,0.899,1.451,0.925,1.731,1.182,0.493,0.886,0.843,��,6.5,��
2017/11/24,18:00,0.899,1.449,0.926,1.731,1.181,0.494,0.887,0.843,��,7.5,��
2017/11/24,18:10,0.897,1.451,0.926,1.731,1.183,0.494,0.887,0.842,��,7.7,��
2017/11/24,18:20,0.897,1.449,0.925,1.733,1.184,0.495,0.886,0.842,��,8.5,��
2017/11/24,18:30,0.897,1.452,0.923,1.732,1.181,0.495,0.886,0.844,��,9.3,��
2017/11/24,18:40,0.897,1.452,0.925,1.733,1.182,0.493,0.886,0.843,��,9.8,��
2017/11/24,18:50,0.897,1.449,0.927,1.732,1.182,0.493,0.887,0.843,��,9.3,��
2017/11/24,19:00,0.898,1.449,0.923,1.732,1.183,0.493,0.888,0.843,��,9.2,��
2017/11/24,19:10,0.894,1.450,0.925,1.735,1.184,0.494,0.889,0.843,��,9.9,��
2017/11/24,19:20,0.896,1.450,0.926,1.732,1.182,0.494,0.889,0.845,���쐼,7.8,��
2017/11/24,19:30,0.895,1.447,0.927,1.735,1.185,0.494,0.887,0.844,���쐼,7.4,��
2017/11/24,19:40,0.896,1.449,0.923,1.736,1.183,0.494,0.888,0.845,���쐼,8.7,��
2017/11/24,19:50,0.897,1.448,0.925,1.734,1.183,0.494,0.889,0.844,��,9.4,��
2017/11/24,20:00,0.897,1.451,0.925,1.733,1.185,0.493,0.887,0.845,���쐼,10.0,��
2017/11/24,20:10,0.897,1.451,0.926,1.735,1.184,0.494,0.888,0.844,��,9.2,��
2017/11/24,20:20,0.897,1.451,0.925,1.735,1.184,0.496,0.887,0.843,��,9.7,��
2017/11/24,20:30,0.897,1.451,0.927,1.734,1.184,0.495,0.887,0.844,��,9.2,��
2017/11/24,20:40,0.896,1.451,0.926,1.734,1.184,0.497,0.890,0.844,��,9.1,��
2017/11/24,20:50,0.898,1.451,0.925,1.734,1.185,0.495,0.889,0.844,��,9.6,��
2017/11/24,21:00,0.899,1.451,0.924,1.734,1.184,0.496,0.887,0.846,��,10.2,��
2017/11/24,21:10,0.898,1.451,0.926,1.736,1.184,0.494,0.889,0.844,��,8.8,��
2017/11/24,21:20,0.898,1.449,0.926,1.735,1.183,0.494,0.887,0.845,��,8.8,��
2017/11/24,21:30,0.899,1.450,0.926,1.733,1.184,0.495,0.889,0.846,��,9.9,��
2017/11/24,21:40,0.897,1.450,0.927,1.735,1.184,0.494,0.889,0.846,��,9.5,��
2017/11/24,21:50,0.896,1.451,0.926,1.735,1.183,0.495,0.888,0.845,���쐼,9.6,��
2017/11/24,22:00,0.898,1.449,0.926,1.736,1.184,0.497,0.889,0.844,��,10.5,��
2017/11/24,22:10,0.898,1.452,0.926,1.734,1.184,0.493,0.887,0.843,��,9.1,��
2017/11/24,22:20,0.898,1.450,0.926,1.733,1.186,0.495,0.885,0.844,��,10.8,��
2017/11/24,22:30,0.897,1.452,0.925,1.733,1.184,0.495,0.887,0.844,��,11.6,��
2017/11/24,22:40,0.897,1.452,0.925,1.737,1.185,0.497,0.887,0.845,��,11.0,��
2017/11/24,22:50,0.897,1.450,0.925,1.735,1.184,0.495,0.888,0.845,��,10.8,��
2017/11/24,23:00,0.896,1.451,0.926,1.738,1.184,0.494,0.889,0.843,��,10.2,��
2017/11/24,23:10,0.894,1.450,0.926,1.735,1.184,0.494,0.889,0.845,��,11.0,��
2017/11/24,23:20,0.897,1.453,0.927,1.735,1.183,0.495,0.888,0.844,��,9.9,��
2017/11/24,23:30,0.897,1.451,0.926,1.733,1.187,0.495,0.888,0.845,��,10.2,��
2017/11/24,23:40,0.896,1.451,0.924,1.736,1.183,0.496,0.889,0.843,��,11.3,��
2017/11/24,23:50,0.897,1.451,0.925,1.735,1.186,0.494,0.887,0.845,��,9.8,��
